Regional Weather Roundup
Issued by NWS

Home | Current Version | Previous Version | Graphics & Text | Print | Product List | Glossary Off
Versions: 1 2 3 4 5 6 7 8 9 10 11 12 13 14 15 16 17 18 19 20 21 22 23 24 25 26 27 28 29 30 31 32 33 34 35 36 37 38 39 40 41 42 43 44 45 46 47 48 49 50

000
ASUS45 KCYS 051610
RWRWY

WYOMING REGIONAL WEATHER ROUNDUP
NATIONAL WEATHER SERVICE CHEYENNE WY
900 AM MST THU MAR 05 2015

NOTE:  "FAIR" INDICATES FEW OR NO CLOUDS BELOW 12,000 FEET
WITH NO SIGNIFICANT WEATHER AND/OR OBSTRUCTIONS TO VISIBILITY.

WYZ001-051700-
YELLOWSTONE NATIONAL PARK

CITY           SKY/WX    TMP DP  RH WIND       PRES   REMARKS
LK YELLOWSTONE   N/A      6   0  76 CALM      30.31R
W YELLOWSTONE  NOT AVBL

$$
WYZ002>013-054>058-071-098>099-051700-
NORTHERN WYOMING

CITY           SKY/WX    TMP DP  RH WIND       PRES   REMARKS
JACKSON        SUNNY      0  -4  85 N9        30.37R WCI -16
CODY           FAIR      28  12  50 W9        30.15R WCI  20
GREYBULL       PTSUNNY   18   8  65 SE3       30.25R
WORLAND        FAIR      18   7  62 CALM      30.23R
SHERIDAN       FAIR      23  12  62 CALM      30.14R
BUFFALO          N/A    N/A N/A N/A MISG      30.13R
GILLETTE       FAIR      28   9  44 SW15      30.13R WCI  16
HULETT         FAIR      27   5  39 SW12G18   30.12S WCI  16
NEWCASTLE      FAIR      19   7  58 CALM      30.17R

$$
WYZ014>020-022>026-101>103-051700-
CENTRAL WYOMING

CITY           SKY/WX    TMP DP  RH WIND       PRES   REMARKS
BIG PINEY      FAIR      17   4  56 CALM      30.30R
PINEDALE       FAIR      19   9  63 W15       30.28R WCI   5
DUBOIS         FAIR      23   9  54 N14       30.22S WCI  11
LANDER         FAIR       2  -1  88 CALM      30.19R
RIVERTON       FAIR       8   0  69 MISG      30.22R
CASPER         FAIR      20  10  65 SW17      30.19R WCI   5
DOUGLAS        FAIR      12   6  77 N6        30.18S WCI   3

$$
WYZ021-027>030-104>119-051700-
SOUTHERN WYOMING

CITY           SKY/WX    TMP DP  RH WIND       PRES   REMARKS
EVANSTON       FAIR      18   9  68 SW12      30.35R WCI   5
FORT BRIDGER   FAIR      28  13  54 W16G23    30.35R WCI  15
ROCK SPRINGS   FAIR      21  10  62 W28       30.30R WCI   3
DIXON          FAIR      15   7  68 CALM      30.39R
RAWLINS        FAIR      20   8  60 VRB5      30.25R WCI  13
SARATOGA       FAIR      18   9  68 CALM      30.29R
LARAMIE        FAIR      23   7  50 SW22      30.16R WCI   8
CHEYENNE       FAIR      30   9  41 S6        30.16R WCI  24
TORRINGTON     FAIR      24  11  57 W5        30.19R WCI  18
PINE BLUFFS    FAIR      27  19  74 S7        30.20R WCI  19

$$


USA.gov is the U.S. government's official web portal to all federal, state and local government web resources and services.